#timestamp,LO_Frequency,Hit,StdDev 
1582440435.6,286046981.6,P
1582440455.4,286046979.1,P
1582440475.2,286046979.0,P
1582440495.1,286046981.8,Y
1582440496.0,286046981.8,P
1582440515.8,286047001.1,N
1582440535.7,286047000.6,N
1582440555.5,286047000.5,N
1582440575.3,286047001.1,N
1582440595.2,286046999.3,N
1582440615.0,286046999.3,N
1582440615.9,286046999.3,N
1582440635.8,286046996.9,N
1582440655.6,286046997.8,N
1582440675.4,286046997.6,N
1582440695.3,286046995.3,N
1582440715.1,286046997.8,N
1582440735.8,286046994.9,N
1582440755.7,286046995.8,N
1582440775.5,286046995.4,N
1582440795.4,286046995.9,N
1582440815.2,286046995.2,N
1582440835.0,286046995.7,N
1582440835.9,286046995.7,N
1582440855.8,286046997.8,N
1582440875.6,286046995.0,N
1582440895.5,286046994.9,N
1582440915.3,286046997.0,N
1582440935.1,286046997.3,N
1582440955.9,286046997.0,N
1582440975.7,286046999.4,N
1582440995.5,286046997.3,N
1582441015.4,286046996.9,N
1582441035.2,286046998.7,N
1582441055.1,286046998.4,N
1582441056.0,286046998.4,N
1582441075.8,286046999.2,N
1582441095.6,286046998.5,N
1582441115.5,286047000.3,N
1582441135.3,286047003.9,N
1582441155.2,286047006.0,Y
1582441175.9,286047007.1,P
1582441195.7,286047009.1,N
